Location: Catacaguana
(10.4120°N, 66.7591°W)
Time: 05:35:00
(UTC+00:00)

SL-08 R/B - Pass Details

Date: 27 May 2022
Orbit: 674 x 737 km, 98.5° (Epoch: 26 June)

Event Time Altitude Azimuth Distance (km) Brightness Sun altitude
Rises 08:39:20 0° 159° (SSE) 3,021 6.5 -19.8°
Reaches altitude 10° 08:41:36 10° 155° (SSE) 2,103 5.7 -19.3°
Maximum altitude 08:46:06 57° 77° (ENE) 789 3.9 -18.3°
Drops below altitude 10° 08:50:35 10° 359° (N) 2,102 6.1 -17.4°
Sets 08:52:51 0° 355° (N) 3,019 6.9 -16.9°
